GFSFLT1_sfc_wetblb_273.txt.gz
Wetbulb
65.05 64.70 67.07 69.48 71.21 71.45 72.29 72.67 74.16 75.01 74.76 74.46 74.61 73.97 73.86 74.05 73.84 72.98 72.15 71.21 70.24 69.18 66.45 68.85 69.06 70.01 69.95 70.15 70.44 71.29 71.85 71.15 70.84
63.40 64.85 66.50 69.13 71.05 71.45 71.42 71.98 73.96 74.53 74.23 73.48 73.82 74.04 74.73 73.16 72.55 72.22 70.79 69.15 67.24 66.87 68.31 68.72 70.06 70.23 69.91 69.74 69.97 70.11 69.68 70.50 70.39
63.89 64.80 65.33 68.48 69.36 71.28 71.97 72.94 73.83 74.39 74.30 73.72 74.24 74.50 73.56 72.75 72.15 70.53 69.27 67.82 67.26 68.26 68.47 68.84 70.01 70.08 69.19 69.34 68.94 68.89 68.95 69.05 70.39
63.70 64.33 64.46 67.86 69.19 71.36 72.14 73.46 73.84 74.17 73.84 73.77 74.23 73.92 72.65 72.60 71.93 68.73 67.72 66.64 67.56 68.14 68.98 69.84 69.07 69.59 68.64 68.18 68.17 68.31 68.22 67.45 66.55
64.53 64.66 65.98 69.19 69.97 70.48 72.03 72.41 73.37 73.52 73.73 73.58 73.84 72.35 71.27 70.25 69.29 67.53 66.45 67.23 68.77 69.03 70.28 69.41 69.19 68.75 68.75 68.55 67.93 67.84 65.67 64.55 64.72
62.40 62.92 66.15 68.33 69.86 70.59 71.54 72.27 72.28 72.81 72.83 72.00 71.53 70.68 69.23 67.99 67.21 67.64 69.27 70.23 70.93 70.75 70.10 69.76 68.89 69.30 68.65 68.40 67.72 66.47 65.24 64.55 63.93
60.94 60.93 61.76 69.19 69.64 70.16 71.45 73.27 72.55 71.02 70.94 70.09 69.25 68.38 67.54 67.80 68.08 70.60 71.32 71.24 70.83 70.78 70.93 69.88 69.27 68.63 68.46 68.16 68.19 66.03 65.47 64.22 62.68
62.98 59.94 61.97 69.85 70.18 71.35 72.00 72.33 71.79 71.26 72.08 70.01 69.50 69.81 68.96 68.07 69.21 70.78 70.36 70.73 70.21 70.32 69.88 70.57 69.85 68.94 67.87 67.94 68.43 65.28 62.54 62.68 63.36
66.05 68.79 69.66 70.35 71.40 71.54 71.59 72.14 72.45 72.35 72.00 71.58 70.80 69.79 69.39 70.34 69.96 69.32 70.25 69.24 69.48 70.27 69.58 68.63 68.42 67.79 67.44 67.15 67.73 64.44 64.85 64.45 62.37
68.31 68.68 69.70 70.36 70.80 71.75 72.11 72.44 72.91 71.58 71.17 71.49 70.31 69.58 69.48 69.43 69.23 69.07 68.60 69.55 69.07 68.27 67.85 67.91 67.20 65.52 63.18 62.80 59.53 61.86 63.18 64.83 61.91
67.09 69.92 70.39 70.72 70.74 71.80 73.00 73.32 73.10 71.95 70.55 70.17 68.70 68.20 68.44 68.42 68.07 68.25 68.61 69.32 67.06 66.41 65.58 64.54 62.68 61.24 61.43 55.78 56.14 57.57 59.14 61.33 58.30
67.45 70.49 70.82 70.53 70.25 71.22 70.53 71.12 70.66 66.10 64.10 63.81 67.49 66.75 66.46 66.84 66.57 67.44 67.26 66.46 64.47 63.13 61.19 60.41 60.08 61.17 59.84 53.51 53.22 55.18 54.97 55.05 53.45
70.44 70.71 69.57 69.52 70.40 70.53 68.86 68.43 65.88 64.15 65.31 65.18 64.93 64.32 65.06 67.62 66.74 65.48 63.29 62.12 61.91 61.75 62.04 60.42 61.66 60.80 55.53 54.88 51.43 53.98 53.45 51.68 49.21
68.04 68.62 69.56 70.50 70.21 68.99 68.97 67.75 66.90 64.39 63.12 62.04 64.30 67.55 66.46 63.88 62.00 62.46 61.61 61.05 61.10 61.25 60.76 58.42 57.47 57.26 57.13 55.66 53.29 51.60 52.26 52.34 48.32
67.53 68.12 68.84 69.09 68.07 68.09 68.49 67.13 66.26 65.51 64.67 65.88 65.01 61.98 60.83 60.77 59.09 59.92 60.57 58.91 59.98 54.15 52.39 51.96 52.49 51.68 51.24 51.80 52.04 52.94 50.97 51.13 51.17
66.50 67.00 66.19 66.48 65.81 65.60 65.83 65.13 64.11 61.95 63.05 62.84 60.47 59.03 59.04 59.85 57.92 59.11 58.54 58.95 55.23 51.71 50.41 49.90 50.29 49.23 48.21 48.35 49.73 48.05 50.01 49.73 50.27
65.65 65.64 64.78 64.98 64.04 63.11 62.18 62.40 61.95 61.15 60.79 60.83 59.73 58.41 57.07 58.01 55.83 56.89 56.14 55.42 55.06 51.71 49.43 49.01 48.84 48.32 47.15 46.79 46.67 46.33 45.78 45.63 45.59
65.27 65.15 64.56 64.31 63.16 61.78 60.64 60.17 59.42 59.75 59.63 59.84 58.00 57.13 54.53 53.77 54.83 54.08 55.95 54.01 53.98 51.53 50.24 50.13 48.47 47.81 46.82 44.71 43.14 44.62 44.44 43.12 43.93
64.91 64.56 64.22 63.35 61.87 60.36 59.33 58.88 58.57 58.20 58.43 57.68 57.37 56.04 52.59 50.56 52.94 51.75 51.76 52.62 50.07 51.96 49.73 48.29 47.09 46.72 47.16 46.87 46.38 45.41 43.48 42.60 42.82
62.99 64.63 64.05 62.46 60.91 60.01 58.73 57.98 57.78 58.21 58.30 54.85 51.82 50.29 51.83 50.16 50.75 49.91 50.74 50.40 50.44 50.13 48.62 49.14 47.68 46.25 46.02 45.64 45.70 43.99 42.82 42.67 43.01

GFSFLT1_sfc_wetblb_276.txt.gz
Wetbulb
63.26 61.72 61.33 65.25 68.66 70.84 71.91 72.90 73.72 74.04 73.00 72.16 72.52 73.64 73.33 73.05 72.58 71.08 69.84 68.35 66.22 65.07 65.97 66.58 67.34 68.24 68.20 68.00 67.96 68.20 68.23 68.84 69.58
63.82 65.12 64.48 66.56 70.20 70.73 71.55 72.15 73.03 73.52 72.81 72.74 73.11 72.77 72.80 72.38 71.52 70.08 67.32 65.50 65.61 66.36 66.32 68.17 69.02 68.90 67.53 67.26 67.32 67.24 67.40 67.73 66.64
63.85 66.06 67.62 69.41 70.39 70.59 72.05 73.03 73.62 74.12 73.50 72.30 72.50 73.20 72.25 71.33 70.62 68.31 66.93 65.70 65.84 66.41 66.77 68.39 68.44 68.10 67.40 66.83 66.85 67.13 66.15 64.67 64.29
62.76 67.08 68.68 69.49 70.22 70.62 71.88 73.38 73.55 73.30 72.82 72.40 73.04 72.64 71.36 71.00 68.40 67.00 66.65 65.25 66.25 66.41 68.24 67.86 67.64 67.85 67.06 66.92 66.37 66.86 63.36 62.42 62.81
64.22 65.07 68.32 69.17 70.11 70.26 71.99 72.23 72.58 72.68 72.65 73.10 73.52 71.97 71.18 70.63 68.87 65.85 65.88 65.21 66.89 68.76 67.88 67.95 67.54 67.64 67.57 67.29 66.47 66.12 63.42 62.68 62.28
63.88 66.18 67.38 68.45 69.40 69.99 71.08 71.71 72.26 72.36 72.31 73.20 72.52 70.87 69.21 67.00 65.55 66.24 67.21 69.05 69.12 69.27 69.38 68.64 68.59 67.21 67.21 66.92 66.70 65.74 64.06 63.46 62.04
64.26 64.98 64.85 66.02 68.20 70.14 71.17 71.83 71.76 71.88 71.47 71.89 70.41 68.34 66.47 64.71 68.39 69.30 69.38 68.52 69.20 69.05 69.25 68.74 68.43 67.62 66.73 66.55 66.82 64.88 63.33 62.35 62.17
62.71 62.42 62.67 66.21 67.65 68.90 70.04 70.88 70.78 70.81 70.37 70.21 68.06 66.11 65.93 66.63 68.84 68.95 68.68 68.63 68.63 68.72 68.27 68.00 67.17 65.70 64.55 63.95 63.39 64.01 62.09 61.78 61.47
61.37 62.51 63.37 64.21 67.41 67.88 70.87 70.08 69.62 70.00 69.05 67.46 67.97 66.55 67.06 68.64 68.47 68.30 68.07 68.45 67.76 67.29 66.79 66.32 63.77 62.10 58.09 56.00 58.96 61.58 63.45 62.66 60.40
62.19 62.70 62.52 64.74 61.80 65.31 70.63 69.30 70.25 69.40 68.92 69.12 68.20 68.46 68.29 68.38 67.26 67.11 68.32 67.69 66.77 65.41 64.06 62.42 60.17 59.34 54.35 53.08 54.08 57.64 58.90 58.33 53.99
63.56 61.02 63.34 68.23 66.61 70.61 69.67 70.04 69.63 70.10 69.59 68.39 67.78 67.35 66.68 66.66 66.59 66.54 66.68 66.05 64.45 62.99 61.62 60.47 58.72 54.82 52.89 51.76 52.96 55.12 54.33 53.92 48.92
63.12 68.65 69.32 69.70 71.63 71.00 70.49 69.34 69.67 68.27 67.96 67.60 67.22 65.57 64.42 63.77 64.36 65.01 63.76 61.29 59.84 60.10 59.80 59.40 59.21 53.12 51.46 50.26 50.06 53.67 53.47 49.08 46.40
68.38 69.33 69.62 69.18 70.28 70.19 69.57 65.99 65.76 64.40 65.89 66.16 64.35 63.40 65.33 65.74 63.92 60.85 59.76 59.06 59.21 59.74 59.05 58.30 55.57 53.34 51.22 52.68 48.98 52.40 52.33 50.24 46.51
68.58 68.75 68.23 68.07 67.89 66.52 64.65 65.05 64.99 64.03 64.14 62.20 63.19 65.36 61.94 60.61 60.00 59.35 58.66 57.98 58.00 54.00 53.04 53.50 54.30 54.42 52.54 51.22 48.64 46.71 51.11 51.14 46.76
67.42 67.44 67.29 67.53 66.48 65.41 64.47 64.73 63.81 61.88 61.68 64.52 62.29 59.65 58.88 57.15 57.10 59.07 57.27 51.87 50.12 50.14 50.09 49.11 47.76 47.27 47.31 47.93 46.99 50.08 49.60 50.06 50.44
65.76 65.71 65.73 66.28 64.61 63.74 63.88 64.27 64.25 63.53 62.01 59.77 58.29 57.96 57.04 55.49 56.66 56.81 56.61 51.16 48.70 48.75 48.42 47.90 47.46 46.57 44.81 44.35 45.49 44.62 48.42 48.32 49.26
63.84 64.45 63.79 63.93 63.48 62.40 61.14 60.78 60.83 60.84 59.38 58.10 57.31 56.28 56.44 54.89 55.15 53.81 52.89 51.85 49.22 48.12 47.48 46.62 46.54 45.31 43.86 43.13 43.15 43.28 43.27 43.47 42.87
63.38 63.30 62.98 62.58 61.09 59.77 58.71 58.38 57.99 58.38 58.55 57.41 56.18 54.23 54.32 53.94 52.89 53.18 51.83 51.41 48.52 48.11 47.80 47.81 46.10 45.08 44.65 43.28 42.65 43.95 44.79 43.32 43.28
63.09 62.28 62.01 60.66 59.16 57.98 56.79 56.67 56.49 56.37 57.42 55.65 54.57 50.83 49.37 52.85 49.73 50.17 49.83 49.82 48.91 48.88 48.59 48.25 46.75 45.92 45.81 45.92 45.66 45.54 44.23 42.81 43.03
61.63 62.16 61.14 59.55 57.98 56.94 56.28 55.61 55.43 55.38 52.10 53.17 53.10 50.67 49.37 48.84 47.81 48.26 50.49 49.41 47.60 46.53 47.20 48.09 45.88 44.79 44.96 44.68 45.16 44.13 42.81 41.83 41.93

GFSFLT1_sfc_wetblb_279.txt.gz
Wetbulb
62.86 62.16 59.99 63.13 65.66 68.48 69.78 70.12 71.54 72.29 70.82 71.35 71.94 71.88 71.58 71.14 71.30 70.93 68.87 67.26 65.74 65.33 65.41 65.63 66.43 67.17 66.44 66.01 66.26 66.59 66.21 64.93 64.73
62.07 62.63 61.53 62.45 65.43 69.69 70.68 71.61 72.95 73.32 72.19 71.85 71.79 72.55 72.21 71.64 70.67 68.88 66.31 64.91 64.52 64.70 65.03 67.36 68.15 67.09 66.07 65.84 66.08 65.88 63.75 62.68 61.57
61.62 63.04 64.46 63.80 67.91 69.86 71.29 72.35 72.92 73.22 72.74 72.29 72.14 72.41 72.13 71.07 69.27 67.38 64.59 64.46 64.80 65.49 66.15 67.76 67.10 66.51 66.11 65.63 66.08 65.17 62.28 61.57 61.25
62.82 64.07 65.32 66.48 68.44 69.88 71.09 72.32 72.82 72.70 72.34 71.63 72.00 72.37 70.85 69.87 67.97 66.51 64.64 64.44 65.47 65.61 67.13 66.93 66.71 66.58 66.28 65.88 65.99 64.64 61.85 61.93 61.70
64.32 65.88 68.30 68.47 68.77 69.35 71.32 71.93 72.48 72.33 72.23 72.26 72.62 71.87 70.38 69.60 66.72 65.41 63.95 64.54 65.85 67.75 66.89 67.05 66.52 66.62 66.24 66.13 65.72 64.55 62.61 61.76 61.56
63.04 65.27 63.35 63.12 67.88 68.84 70.86 71.51 72.03 72.23 72.06 72.41 72.81 71.40 70.32 69.17 64.52 63.78 65.07 67.15 68.38 68.58 68.20 67.73 67.13 66.50 65.54 65.31 65.20 63.11 62.96 61.67 61.22
62.71 63.74 64.95 64.62 66.97 68.86 70.30 71.14 71.57 71.67 71.72 72.96 72.19 70.62 67.98 65.49 66.24 67.89 68.41 68.27 68.30 68.23 67.94 67.02 65.18 63.43 62.97 61.46 61.39 62.07 61.48 61.23 60.40
61.99 62.14 64.69 66.58 67.43 68.21 69.86 70.67 71.24 71.76 71.75 72.30 70.97 68.08 64.40 67.47 68.37 68.37 67.78 67.58 67.89 67.33 66.61 63.96 61.78 58.15 56.52 57.14 58.64 60.38 58.72 57.63 55.53
61.97 62.22 65.51 67.24 68.47 69.08 69.58 70.65 70.49 68.84 67.94 67.24 68.41 66.35 66.55 68.66 67.80 67.45 67.67 66.99 66.36 66.14 63.88 61.52 56.78 53.93 52.92 52.03 54.41 56.72 57.84 53.98 50.51
62.28 61.51 63.47 66.29 68.13 68.47 69.69 68.64 68.93 68.07 67.89 68.50 68.10 68.16 68.41 67.94 67.29 67.65 66.59 65.31 64.10 63.18 60.11 58.99 54.58 52.55 51.38 50.39 51.22 54.70 54.74 54.15 47.72
62.36 62.14 61.78 62.58 62.04 68.76 68.71 68.50 68.55 69.06 68.24 67.98 67.92 67.76 67.53 67.42 67.15 66.31 65.08 62.52 60.53 59.67 58.40 55.29 51.84 50.70 50.10 49.32 50.97 53.36 52.69 52.20 45.94
62.78 63.45 60.57 63.62 65.22 69.50 68.89 68.64 68.68 66.97 66.97 67.42 67.65 67.24 66.88 65.75 66.40 64.72 61.52 59.00 58.31 57.85 57.85 52.44 50.64 49.74 48.73 47.67 47.68 52.04 51.90 48.02 45.49
63.14 66.46 68.40 67.65 69.78 69.68 68.39 67.51 68.32 67.24 66.77 66.59 65.06 65.14 63.75 65.10 64.79 60.73 58.42 58.37 57.36 56.10 54.02 52.12 51.71 50.22 49.04 49.44 44.72 51.25 51.50 48.04 45.41
67.15 67.53 69.28 69.77 68.99 67.94 66.70 65.68 66.88 65.96 65.10 62.96 63.22 64.66 63.69 61.78 59.17 58.46 58.37 55.29 52.66 54.09 54.19 53.30 51.53 50.08 48.32 46.33 46.76 45.56 50.64 50.56 45.62
66.41 66.66 66.72 66.61 65.00 64.44 64.21 64.03 65.20 63.73 62.15 63.64 62.98 60.97 60.00 57.84 56.93 56.75 52.59 50.54 49.41 49.29 48.01 46.67 45.61 44.37 44.18 45.19 45.16 48.06 48.81 50.43 50.50
65.46 65.73 65.15 65.17 64.17 63.67 62.76 62.35 62.27 62.00 62.21 59.99 58.66 57.07 55.12 55.39 54.88 51.57 49.14 48.81 47.44 47.11 46.19 44.88 43.95 43.12 42.29 42.39 43.94 43.38 47.74 48.89 49.83
64.33 64.76 63.97 63.61 63.01 62.00 60.56 61.29 61.96 61.30 58.75 58.12 57.14 54.44 53.79 54.30 54.24 51.72 48.71 47.94 47.76 46.75 45.63 44.43 44.27 43.31 41.99 41.82 42.41 42.90 42.80 42.90 42.80
62.95 62.79 62.56 62.15 61.01 60.25 58.59 58.78 58.13 57.87 56.89 56.76 55.13 54.09 53.19 52.86 52.80 50.58 48.98 47.29 46.99 47.10 46.30 46.33 44.55 43.52 43.24 42.33 42.96 43.88 44.56 43.30 42.64
62.31 61.32 60.31 59.21 58.34 58.10 56.80 56.69 56.55 56.73 56.07 55.17 52.71 51.99 52.37 51.42 51.56 50.67 49.99 48.32 47.09 48.25 47.52 47.29 45.91 44.68 45.02 45.27 45.53 45.09 44.30 43.08 42.72
60.39 60.82 59.78 58.94 57.59 56.06 55.64 55.05 54.38 53.87 54.69 54.00 49.96 48.61 49.74 49.24 48.84 49.20 48.53 48.02 46.61 45.74 46.94 47.36 45.96 43.85 44.06 44.10 44.70 43.95 42.83 42.14 42.06

GFSFLT1_sfc_wetblb_285.txt.gz
Wetbulb
66.29 66.62 67.65 67.86 68.29 69.22 70.54 70.98 71.13 71.15 71.50 72.16 72.97 72.87 73.92 76.46 76.67 75.29 74.31 73.88 72.14 70.85 70.36 71.44 72.68 72.29 72.29 72.06 72.46 70.08 69.96 68.76 67.66
65.43 66.68 67.01 67.69 68.63 69.71 70.58 71.38 71.57 71.82 71.95 72.63 73.63 73.33 74.15 75.48 76.15 75.61 73.75 73.15 72.39 71.43 72.74 72.59 72.71 71.93 71.90 72.41 71.59 69.84 69.86 68.71 68.18
64.08 67.08 66.96 67.47 68.57 70.05 71.00 71.86 72.34 72.77 72.92 73.07 74.23 74.37 73.98 75.43 76.14 75.58 74.37 72.75 71.87 72.33 73.03 73.77 72.94 72.08 72.07 72.21 72.25 69.93 69.93 69.30 68.98
64.16 65.72 66.85 66.91 68.40 70.23 72.13 72.91 72.81 72.84 72.88 73.19 73.95 74.15 75.23 75.97 75.86 74.84 73.61 72.11 71.86 72.92 73.69 73.79 72.79 72.72 72.77 72.38 72.04 70.55 69.79 68.90 68.68
65.12 66.55 67.46 67.43 67.69 69.43 71.75 73.03 73.71 73.65 73.15 73.04 73.85 75.07 75.87 75.57 74.38 72.73 72.04 70.87 71.95 73.12 73.03 72.96 72.51 72.43 71.47 70.61 69.95 69.61 68.44 67.93 67.66
67.17 67.15 67.74 68.32 68.36 69.97 71.74 73.95 74.75 74.26 73.29 72.09 71.94 73.37 73.50 72.87 70.86 70.41 70.60 71.15 72.21 73.16 73.28 72.48 71.52 69.83 68.72 68.32 67.87 67.58 66.28 64.87 63.72
66.96 67.98 68.35 69.28 70.28 71.43 73.44 74.11 71.94 69.33 69.37 69.60 69.61 68.97 69.73 69.21 69.55 69.85 70.09 71.92 73.04 73.10 72.23 69.64 66.83 66.52 65.81 65.04 63.77 62.39 62.00 60.75 60.01
66.68 67.76 67.70 69.89 70.84 72.44 72.63 70.98 70.08 67.94 67.19 66.90 67.50 68.51 68.25 67.48 68.38 70.37 71.55 72.28 72.28 69.90 67.88 65.54 64.03 62.45 61.58 61.32 61.17 59.47 58.59 57.77 57.34
66.10 67.58 67.73 69.45 71.66 72.67 70.39 70.69 68.87 68.16 66.40 65.01 66.33 65.60 68.61 70.04 68.90 70.23 71.44 69.79 66.72 65.62 63.54 62.39 61.38 60.29 60.01 59.45 57.60 55.50 55.02 55.78 56.44
65.90 67.65 68.15 68.20 69.93 72.55 72.19 70.64 68.21 67.89 65.65 65.96 66.66 66.66 67.45 68.83 70.52 69.81 68.59 66.57 63.72 62.20 61.38 60.65 59.44 58.43 58.08 57.64 56.98 54.70 54.39 54.13 56.37
66.40 66.95 67.86 70.07 71.37 72.69 71.49 71.30 69.76 69.44 69.29 66.92 66.50 67.25 67.21 69.89 70.39 68.67 67.98 65.50 62.75 60.91 60.46 59.56 57.77 56.54 56.73 56.99 55.26 53.22 53.32 54.38 55.88
67.10 67.41 69.23 70.93 72.76 72.34 70.65 69.67 69.41 68.54 66.83 68.39 67.79 67.34 68.01 70.30 70.20 68.76 67.57 65.28 62.55 60.48 59.32 57.87 56.31 56.18 56.44 56.19 55.10 52.56 52.36 55.40 55.15
69.06 67.44 68.97 71.53 71.94 70.81 70.39 69.99 70.65 68.58 68.07 68.13 68.38 69.87 70.11 70.77 70.42 68.62 66.51 64.95 62.02 60.40 59.64 57.28 55.50 55.09 55.84 54.17 55.27 52.07 51.99 54.69 55.05
69.44 68.23 70.42 71.58 69.88 69.94 71.26 71.53 69.17 64.85 66.10 67.75 70.08 70.42 70.24 69.90 69.22 67.10 65.64 64.16 61.50 59.75 58.59 56.55 55.68 55.09 55.30 55.64 55.51 53.79 50.97 51.21 55.54
68.68 67.76 70.32 69.96 69.71 71.27 71.84 71.07 68.97 67.73 67.08 68.69 69.44 69.74 69.46 67.73 66.20 65.00 63.56 62.83 60.64 59.97 58.22 56.06 55.17 55.10 54.23 54.97 55.26 49.90 50.41 50.42 50.91
66.98 68.85 68.94 69.25 71.20 70.16 68.82 68.08 68.88 67.53 67.08 68.07 68.09 68.17 66.58 65.49 64.11 62.61 63.09 61.45 59.90 58.31 57.02 54.07 53.73 53.59 53.47 53.72 54.61 55.00 48.90 49.43 49.34
65.94 66.63 65.99 67.94 69.16 66.89 66.38 67.81 68.75 67.95 66.84 67.96 66.64 65.32 64.00 61.94 61.24 60.98 61.39 60.43 59.48 57.52 55.04 53.36 53.02 53.42 53.78 54.43 54.75 55.28 55.75 55.26 54.65
64.48 65.06 66.57 67.29 67.05 65.63 65.97 67.46 67.16 67.28 66.58 66.34 65.22 63.26 61.14 60.70 59.22 60.27 59.42 59.45 57.90 56.66 56.72 53.50 54.41 55.04 55.56 55.10 55.42 56.39 52.85 52.41 55.41
64.70 64.23 65.19 64.72 66.31 66.73 66.38 66.19 65.51 65.09 65.08 65.79 63.93 61.07 59.80 58.86 58.44 57.62 56.97 56.06 55.05 48.93 48.87 46.55 45.72 45.39 51.05 56.42 50.01 46.33 44.84 43.53 43.22
62.06 65.11 66.22 65.94 65.19 65.36 65.57 64.42 63.26 63.26 64.58 64.18 62.95 60.96 59.98 57.63 56.60 56.82 56.18 56.38 55.43 51.31 51.66 47.44 45.94 44.49 44.03 44.08 45.89 44.54 43.05 42.29 42.63

GFSFLT1_sfc_wetblb_291.txt.gz
Wetbulb
66.84 69.02 69.89 70.83 71.29 72.53 73.70 74.19 74.53 75.13 76.19 76.87 77.53 77.54 78.26 79.02 78.81 77.04 76.60 77.35 76.60 73.99 71.73 72.91 75.34 74.37 74.41 74.47 73.95 73.18 73.44 72.81 71.13
65.97 68.34 69.72 70.78 71.58 72.53 73.64 74.52 74.91 75.33 76.27 77.17 77.03 77.63 78.77 79.02 78.77 78.53 77.67 78.69 77.30 73.21 74.41 74.72 75.15 74.56 74.15 73.88 73.85 73.35 73.65 72.32 72.10
65.14 68.27 69.60 70.78 71.63 72.57 73.70 74.74 75.32 75.83 76.53 76.75 76.72 76.18 77.64 78.06 78.14 78.53 78.16 77.84 76.31 74.88 75.35 76.25 75.85 74.99 73.85 74.07 74.59 73.75 74.28 72.75 72.00
65.03 66.35 69.16 70.04 71.49 73.08 73.46 74.68 75.18 75.35 75.97 76.20 75.58 75.68 77.45 78.52 77.58 77.61 78.13 76.59 74.83 75.10 75.96 76.25 75.77 75.38 74.87 73.57 73.55 73.15 72.86 71.73 70.92
66.11 66.80 69.03 70.23 71.68 73.02 73.45 74.25 75.28 75.33 76.04 75.37 75.46 76.65 78.29 77.08 78.13 78.39 76.53 75.89 74.18 75.53 76.09 76.23 75.73 75.13 74.19 73.40 72.69 71.53 70.30 68.78 68.18
66.88 68.89 69.47 70.61 72.09 73.12 73.61 74.32 77.21 77.22 76.18 76.21 76.22 76.94 76.11 76.81 76.42 76.24 76.02 75.46 74.26 75.26 76.07 76.10 74.80 74.82 73.16 72.02 70.73 69.23 68.16 67.66 67.06
66.58 70.41 70.60 71.17 72.35 73.52 74.66 75.84 77.39 78.04 77.53 78.15 78.00 76.92 77.07 77.54 77.38 76.93 75.57 75.45 75.91 75.50 76.17 74.72 73.01 73.04 72.03 70.11 67.89 67.24 66.23 64.97 63.47
66.63 70.37 70.12 71.29 72.22 73.43 75.37 76.24 76.64 77.24 78.53 78.65 78.44 78.06 78.73 77.30 77.72 77.07 76.45 73.65 76.26 73.41 74.00 72.49 72.01 70.56 68.58 67.09 65.13 60.66 63.47 63.16 62.94
67.44 70.23 70.85 71.64 72.62 74.18 76.15 76.33 76.06 76.56 77.20 77.26 77.87 77.75 76.25 75.63 75.19 74.18 72.55 71.22 72.36 71.58 71.02 70.05 68.97 67.90 66.78 64.70 60.15 56.32 57.93 61.47 62.05
68.31 70.54 72.05 73.17 74.14 75.79 75.61 75.52 76.22 75.91 76.17 76.76 75.76 74.90 74.05 72.85 72.51 71.57 71.17 70.12 69.93 68.71 67.95 67.96 66.80 65.97 64.73 62.20 59.03 55.36 57.04 61.08 61.11
68.52 71.67 73.07 74.74 76.33 75.39 75.14 75.89 76.03 75.75 74.30 72.51 72.58 73.50 73.00 72.91 71.55 71.60 70.25 69.14 67.92 67.15 66.27 66.35 65.61 64.57 63.43 61.17 57.84 55.04 55.89 58.09 60.97
69.68 72.97 75.07 76.08 76.26 74.99 75.55 74.69 75.30 73.82 73.21 72.13 72.68 71.73 72.46 72.51 71.15 71.04 69.87 68.56 68.37 68.32 67.49 65.93 64.51 64.02 62.51 59.58 57.59 53.55 54.34 56.29 60.61
71.28 73.27 74.67 75.84 75.55 75.14 75.05 73.97 73.84 74.08 72.71 71.50 71.31 72.83 72.90 72.85 72.35 71.19 69.90 69.89 69.52 68.63 67.34 64.90 63.30 62.38 61.63 59.04 58.16 53.19 53.64 56.96 60.38
72.01 73.38 74.48 74.88 75.77 74.97 75.69 75.91 74.57 74.32 73.19 71.15 71.75 72.17 73.43 73.16 71.59 70.85 70.55 69.62 69.26 67.54 65.97 64.64 63.27 61.66 60.76 60.36 59.61 56.63 52.32 54.01 60.31
73.13 72.28 73.80 74.82 75.52 75.16 76.11 75.42 74.88 74.57 72.55 73.23 72.73 72.02 72.10 73.06 72.61 70.81 68.65 68.78 68.21 66.89 64.80 62.89 61.51 60.85 59.87 60.61 60.48 57.62 52.86 52.79 52.28
72.12 72.37 74.15 75.41 75.09 74.68 75.39 75.36 75.27 73.69 73.98 73.59 72.40 71.97 71.32 71.75 70.61 69.34 69.23 67.82 66.45 64.14 63.70 61.35 60.49 58.68 58.27 58.61 59.49 59.22 53.79 53.28 52.51
73.04 73.57 73.21 74.55 74.72 73.51 73.62 74.62 73.51 74.04 72.93 73.78 72.12 71.90 70.58 69.57 69.77 67.24 68.02 67.37 65.88 63.76 61.87 59.95 58.82 58.23 58.18 58.45 58.73 59.27 59.37 57.73 57.34
72.56 72.68 73.72 73.92 73.69 73.40 73.51 73.14 72.94 73.17 71.71 71.16 69.84 68.85 68.52 69.09 67.80 68.27 67.27 67.34 63.45 63.15 62.62 58.70 58.97 58.86 59.13 58.44 58.28 58.01 53.76 54.45 57.63
70.37 71.51 73.10 74.14 73.63 72.79 72.03 71.58 71.17 71.20 71.50 70.85 68.96 68.92 69.02 68.43 67.77 66.74 64.94 62.85 61.02 49.01 50.42 48.22 47.07 46.91 52.17 58.84 51.45 48.56 48.02 45.95 44.93
69.19 71.94 72.32 73.01 72.44 70.77 71.42 70.54 71.18 71.57 71.60 71.61 70.84 69.63 68.84 68.02 65.71 64.44 62.90 61.45 59.76 57.60 54.64 48.83 47.32 45.62 45.70 45.56 45.67 45.34 44.21 43.49 43.13